| time (UTC) | temp F | wind direction | speed MPH | gust MPH | rain 1hr in | rain 24hr in | rain mn in | humidity % | barometer mb |
| 20260902125042 | 79 | 91 | 2.0 | 2.0 | 0.00 | 0.00 | 0.00 | 77 | 1017.7 |
| 20260902124041 | 78 | 117 | 1.0 | 1.0 | 0.00 | 0.00 | 0.00 | 80 | 1017.4 |
| 20260902123041 | 77 | 116 | 2.0 | 2.0 | 0.00 | 0.00 | 0.00 | 81 | 1017.1 |
| 20260902122040 | 77 | 117 | 1.0 | 1.0 | 0.00 | 0.00 | 0.00 | 81 | 1017.2 |
| 20260902121041 | 77 | 122 | 1.0 | 1.0 | 0.00 | 0.00 | 0.00 | 83 | 1017.0 |
| 20260902120040 | 77 | 126 | 1.0 | 1.0 | 0.00 | 0.00 | 0.00 | 83 | 1016.9 |
| 20260902115040 | 77 | 104 | 3.0 | 3.0 | 0.00 | 0.00 | 0.00 | 83 | 1017.0 |
| 20260902114040 | 77 | 118 | 4.0 | 4.0 | 0.00 | 0.00 | 0.00 | 82 | 1017.2 |
| 20260902113040 | 77 | 108 | 2.0 | 2.0 | 0.00 | 0.00 | 0.00 | 82 | 1017.0 |
| 20260902112100 | 77 | 134 | 2.0 | 2.0 | 0.00 | 0.00 | 0.00 | 82 | 1017.1 |
| 20260902111040 | 77 | 0.0 | 0.0 | 0.00 | 0.00 | 0.00 | 81 | 1017.2 | |
| 20260902110041 | 77 | 0.0 | 0.0 | 0.00 | 0.00 | 0.00 | 80 | 1017.2 | |
| 20260902105040 | 78 | 134 | 1.0 | 1.0 | 0.00 | 0.00 | 0.00 | 77 | 1017.1 |
| 20260902104040 | 79 | 134 | 2.0 | 2.0 | 0.00 | 0.00 | 0.00 | 76 | 1017.0 |
| 20260902103040 | 78 | 135 | 1.0 | 1.0 | 0.00 | 0.00 | 0.00 | 78 | 1017.1 |
| 20260902102040 | 78 | 135 | 1.0 | 1.0 | 0.00 | 0.00 | 0.00 | 78 | 1017.1 |
| 20260902101041 | 78 | 135 | 0.0 | 0.0 | 0.00 | 0.00 | 0.00 | 77 | 1016.9 |
| 20260902100041 | 79 | 134 | 0.0 | 0.0 | 0.00 | 0.00 | 0.00 | 75 | 1017.1 |
| 20260902095041 | 79 | 103 | 3.0 | 3.0 | 0.00 | 0.00 | 0.00 | 74 | 1016.9 |
| 20260902094040 | 80 | 87 | 4.0 | 4.0 | 0.00 | 0.00 | 0.00 | 74 | 1017.1 |
| 20260902093040 | 80 | 176 | 1.0 | 1.0 | 0.00 | 0.00 | 0.00 | 72 | 1016.7 |
| 20260902092040 | 79 | 177 | 1.0 | 1.0 | 0.00 | 0.00 | 0.00 | 74 | 1017.0 |
| 20260902091101 | 79 | 178 | 0.0 | 0.0 | 0.00 | 0.00 | 0.00 | 74 | 1016.9 |
| 20260902090100 | 81 | 0.0 | 0.0 | 0.00 | 0.00 | 0.00 | 68 | 1016.9 | |
| 20260902085121 | 81 | 179 | 1.0 | 1.0 | 0.00 | 0.00 | 0.00 | 67 | 1016.8 |
| 20260902084040 | 80 | 181 | 1.0 | 1.0 | 0.00 | 0.00 | 0.00 | 68 | 1016.9 |
| 20260902083040 | 80 | 0.0 | 0.0 | 0.00 | 0.00 | 0.00 | 70 | 1016.8 | |
| 20260902082041 | 81 | 181 | 0.0 | 0.0 | 0.00 | 0.00 | 0.00 | 69 | 1017.0 |
| 20260902081040 | 82 | 0.0 | 0.0 | 0.00 | 0.00 | 0.00 | 66 | 1016.7 | |
| 20260902080040 | 82 | 180 | 1.0 | 1.0 | 0.00 | 0.00 | 0.00 | 66 | 1016.9 |
| 20260902075041 | 82 | 186 | 2.0 | 2.0 | 0.00 | 0.00 | 0.00 | 65 | 1016.8 |
| 20260902074101 | 83 | 161 | 2.0 | 2.0 | 0.00 | 0.00 | 0.00 | 64 | 1017.0 |
| 20260902073040 | 83 | 170 | 1.0 | 2.0 | 0.00 | 0.00 | 0.00 | 63 | 1016.8 |
| 20260902072100 | 83 | 195 | 2.0 | 2.0 | 0.00 | 0.00 | 0.00 | 63 | 1016.8 |
| 20260902071040 | 84 | 184 | 4.0 | 6.0 | 0.00 | 0.00 | 0.00 | 62 | 1016.8 |
| 20260902070040 | 84 | 172 | 4.0 | 4.0 | 0.00 | 0.00 | 0.00 | 62 | 1016.9 |
| 20260902065040 | 84 | 151 | 3.0 | 4.0 | 0.00 | 0.00 | 0.00 | 62 | 1017.0 |
| 20260902064040 | 84 | 151 | 3.0 | 4.0 | 0.00 | 0.00 | 0.00 | 62 | 1016.7 |
| 20260902063040 | 84 | 158 | 3.0 | 4.0 | 0.00 | 0.00 | 0.00 | 62 | 1016.7 |
| 20260902061100 | 85 | 135 | 3.0 | 6.0 | 0.00 | 0.00 | 0.00 | 62 | 1016.9 |
| 20260902060042 | 85 | 142 | 2.0 | 3.0 | 0.00 | 0.00 | 0.00 | 62 | 1016.9 |
| 20260902055041 | 85 | 159 | 2.0 | 2.0 | 0.00 | 0.00 | 0.00 | 61 | 1016.8 |
| 20260902054101 | 85 | 165 | 4.0 | 7.0 | 0.00 | 0.00 | 0.00 | 60 | 1016.7 |
| 20260902053041 | 85 | 182 | 3.0 | 3.0 | 0.00 | 0.00 | 0.00 | 60 | 1016.7 |
| 20260902052040 | 86 | 180 | 4.0 | 6.0 | 0.00 | 0.00 | 0.00 | 59 | 1016.6 |
| 20260902051101 | 86 | 148 | 3.0 | 4.0 | 0.00 | 0.00 | 0.00 | 58 | 1016.8 |
| 20260902050041 | 87 | 119 | 5.0 | 7.0 | 0.00 | 0.00 | 0.00 | 57 | 1016.6 |
| 20260902045041 | 87 | 190 | 4.0 | 6.0 | 0.00 | 0.00 | 0.00 | 57 | 1016.7 |
| 20260902044041 | 87 | 118 | 7.0 | 10.0 | 0.00 | 0.00 | 0.00 | 56 | 1016.7 |
| 20260902043041 | 87 | 196 | 8.0 | 10.0 | 0.00 | 0.00 | 0.00 | 55 | 1016.7 |
| 20260902042041 | 88 | 152 | 11.0 | 14.0 | 0.00 | 0.00 | 0.00 | 54 | 1016.6 |
| 20260902041100 | 88 | 174 | 8.0 | 9.0 | 0.00 | 0.00 | 0.00 | 52 | 1016.4 |
| 20260902040041 | 87 | 145 | 6.0 | 7.0 | 0.00 | 0.00 | 0.00 | 56 | 1016.3 |
| 20260902035042 | 87 | 163 | 4.0 | 4.0 | 0.00 | 0.00 | 0.00 | 57 | 1016.2 |
| 20260902034041 | 88 | 168 | 2.0 | 2.0 | 0.00 | 0.00 | 0.00 | 55 | 1016.3 |
| 20260902033041 | 88 | 147 | 2.0 | 2.0 | 0.00 | 0.00 | 0.00 | 55 | 1016.2 |
| 20260902032041 | 88 | 129 | 2.0 | 2.0 | 0.00 | 0.00 | 0.00 | 55 | 1016.0 |
| 20260902031100 | 88 | 173 | 1.0 | 1.0 | 0.00 | 0.00 | 0.00 | 55 | 1015.9 |
| 20260902030041 | 89 | 174 | 1.0 | 1.0 | 0.00 | 0.00 | 0.00 | 52 | 1015.7 |
| 20260902025041 | 89 | 168 | 2.0 | 2.0 | 0.00 | 0.00 | 0.00 | 52 | 1015.7 |
| 20260902024040 | 89 | 172 | 1.0 | 1.0 | 0.00 | 0.00 | 0.00 | 54 | 1015.5 |
| 20260902023041 | 89 | 156 | 3.0 | 3.0 | 0.00 | 0.00 | 0.00 | 54 | 1015.5 |
| 20260902022041 | 89 | 134 | 1.0 | 1.0 | 0.00 | 0.00 | 0.00 | 58 | 1015.4 |
| 20260902021041 | 88 | 154 | 2.0 | 3.0 | 0.00 | 0.00 | 0.00 | 58 | 1015.3 |
| 20260902020041 | 88 | 96 | 2.0 | 2.0 | 0.00 | 0.00 | 0.00 | 59 | 1014.9 |
| 20260902015141 | 89 | 181 | 1.0 | 1.0 | 0.00 | 0.00 | 0.00 | 56 | 1014.8 |
| 20260902014041 | 90 | 146 | 6.0 | 7.0 | 0.00 | 0.00 | 0.00 | 50 | 1014.8 |
| 20260902013040 | 92 | 129 | 4.0 | 4.0 | 0.00 | 0.00 | 0.00 | 43 | 1014.7 |
| 20260902012041 | 91 | 183 | 2.0 | 2.0 | 0.00 | 0.00 | 0.00 | 44 | 1014.6 |
| 20260902011041 | 92 | 0.0 | 0.0 | 0.00 | 0.00 | 0.00 | 44 | 1014.5 | |
| 20260902010041 | 93 | 184 | 1.0 | 1.0 | 0.00 | 0.00 | 0.00 | 42 | 1014.3 |
| 20260902005040 | 94 | 184 | 0.0 | 0.0 | 0.00 | 0.00 | 0.00 | 41 | 1014.3 |
| 20260902004120 | 95 | 183 | 1.0 | 1.0 | 0.00 | 0.00 | 0.00 | 41 | 1014.3 |
| 20260902003041 | 95 | 182 | 1.0 | 1.0 | 0.00 | 0.00 | 0.00 | 40 | 1014.4 |
| 20260902002040 | 95 | 184 | 1.0 | 1.0 | 0.00 | 0.00 | 0.00 | 40 | 1014.7 |
| 20260902001040 | 95 | 181 | 2.0 | 2.0 | 0.00 | 0.00 | 0.00 | 40 | 1014.6 |
| 20260902000040 | 94 | 110 | 2.0 | 2.0 | 0.00 | 0.00 | 0.00 | 40 | 1014.6 |
| 20260901235040 | 93 | 84 | 3.0 | 4.0 | 0.00 | 0.00 | 0.00 | 40 | 1014.6 |
| 20260901234041 | 94 | 89 | 9.0 | 10.0 | 0.00 | 0.00 | 0.00 | 40 | 1015.0 |
| 20260901233039 | 97 | 154 | 6.0 | 7.0 | 0.00 | 0.00 | 0.00 | 36 | 1014.8 |
| 20260901232040 | 97 | 174 | 4.0 | 6.0 | 0.00 | 0.00 | 0.00 | 37 | 1014.9 |
| 20260901231121 | 97 | 207 | 3.0 | 4.0 | 0.00 | 0.00 | 0.00 | 36 | 1014.8 |
| 20260901225041 | 97 | 147 | 7.0 | 8.0 | 0.00 | 0.00 | 0.00 | 35 | 1014.9 |
| 20260901224041 | 97 | 101 | 8.0 | 10.0 | 0.00 | 0.00 | 0.00 | 36 | 1014.7 |
| 20260901223040 | 98 | 82 | 9.0 | 9.0 | 0.00 | 0.00 | 0.00 | 34 | 1014.8 |
| 20260901222041 | 99 | 107 | 3.0 | 3.0 | 0.00 | 0.00 | 0.00 | 34 | 1014.7 |
| 20260901221041 | 99 | 159 | 5.0 | 6.0 | 0.00 | 0.00 | 0.00 | 33 | 1014.7 |
| 20260901220041 | 99 | 142 | 6.0 | 7.0 | 0.00 | 0.00 | 0.00 | 33 | 1015.0 |
| 20260901215041 | 99 | 197 | 4.0 | 7.0 | 0.00 | 0.00 | 0.00 | 34 | 1015.2 |
| 20260901214101 | 100 | 119 | 5.0 | 6.0 | 0.00 | 0.00 | 0.00 | 33 | 1015.2 |
| 20260901213040 | 98 | 157 | 6.0 | 7.0 | 0.00 | 0.00 | 0.00 | 35 | 1015.1 |
| 20260901212101 | 99 | 173 | 6.0 | 8.0 | 0.00 | 0.00 | 0.00 | 34 | 1015.1 |
| 20260901211040 | 100 | 171 | 2.0 | 2.0 | 0.00 | 0.00 | 0.00 | 34 | 1015.4 |
| 20260901210041 | 100 | 181 | 2.0 | 2.0 | 0.00 | 0.00 | 0.00 | 34 | 1015.3 |
| 20260901205041 | 98 | 175 | 1.0 | 1.0 | 0.00 | 0.00 | 0.00 | 36 | 1015.7 |
| 20260901204041 | 98 | 201 | 7.0 | 8.0 | 0.00 | 0.00 | 0.00 | 35 | 1015.6 |
| 20260901203041 | 99 | 183 | 3.0 | 3.0 | 0.00 | 0.00 | 0.00 | 35 | 1015.8 |
| 20260901202042 | 99 | 143 | 4.0 | 6.0 | 0.00 | 0.00 | 0.00 | 36 | 1015.9 |
| 20260901201041 | 96 | 87 | 3.0 | 4.0 | 0.00 | 0.00 | 0.00 | 39 | 1016.0 |
| 20260901200041 | 97 | 164 | 3.0 | 3.0 | 0.00 | 0.00 | 0.00 | 38 | 1016.4 |
| 20260901195041 | 98 | 191 | 0.0 | 0.0 | 0.00 | 0.00 | 0.00 | 38 | 1016.1 |
| 20260901194041 | 95 | 147 | 6.0 | 7.0 | 0.00 | 0.00 | 0.00 | 40 | 1016.5 |
| 20260901193041 | 96 | 193 | 3.0 | 4.0 | 0.00 | 0.00 | 0.00 | 39 | 1016.4 |
| 20260901191041 | 96 | 201 | 2.0 | 2.0 | 0.00 | 0.00 | 0.00 | 39 | 1016.8 |
| 20260901190041 | 94 | 186 | 1.0 | 1.0 | 0.00 | 0.00 | 0.00 | 41 | 1017.0 |
| 20260901185040 | 94 | 127 | 8.0 | 10.0 | 0.00 | 0.00 | 0.00 | 41 | 1017.3 |
| 20260901184040 | 95 | 148 | 8.0 | 10.0 | 0.00 | 0.00 | 0.00 | 40 | 1017.4 |
| 20260901183100 | 94 | 60 | 6.0 | 8.0 | 0.00 | 0.00 | 0.00 | 42 | 1017.5 |
| 20260901182040 | 96 | 114 | 7.0 | 9.0 | 0.00 | 0.00 | 0.00 | 39 | 1017.9 |
| 20260901181101 | 93 | 48 | 4.0 | 4.0 | 0.00 | 0.00 | 0.00 | 42 | 1017.6 |
| 20260901180121 | 93 | 98 | 3.0 | 3.0 | 0.00 | 0.00 | 0.00 | 41 | 1018.0 |
| 20260901175040 | 94 | 132 | 4.0 | 6.0 | 0.00 | 0.00 | 0.00 | 40 | 1018.4 |
| 20260901174101 | 94 | 112 | 5.0 | 6.0 | 0.00 | 0.00 | 0.00 | 44 | 1018.4 |
| 20260901173040 | 93 | 156 | 7.0 | 8.0 | 0.00 | 0.00 | 0.00 | 45 | 1018.4 |
| 20260901172041 | 94 | 112 | 8.0 | 9.0 | 0.00 | 0.00 | 0.00 | 44 | 1018.8 |
| 20260901171040 | 95 | 87 | 4.0 | 6.0 | 0.00 | 0.00 | 0.00 | 43 | 1018.7 |
| 20260901170100 | 96 | 145 | 2.0 | 2.0 | 0.00 | 0.00 | 0.00 | 43 | 1018.8 |
| 20260901165041 | 93 | 204 | 1.0 | 1.0 | 0.00 | 0.00 | 0.00 | 46 | 1018.9 |
| 20260901164040 | 93 | 175 | 5.0 | 7.0 | 0.00 | 0.00 | 0.00 | 45 | 1019.1 |
| 20260901163040 | 95 | 156 | 6.0 | 8.0 | 0.00 | 0.00 | 0.00 | 43 | 1019.1 |
| 20260901162100 | 94 | 169 | 1.0 | 1.0 | 0.00 | 0.00 | 0.00 | 46 | 1019.1 |
| 20260901161039 | 92 | 143 | 5.0 | 6.0 | 0.00 | 0.00 | 0.00 | 46 | 1019.2 |
| 20260901160040 | 94 | 143 | 2.0 | 3.0 | 0.00 | 0.00 | 0.00 | 45 | 1019.1 |
| 20260901155040 | 92 | 170 | 3.0 | 3.0 | 0.00 | 0.00 | 0.00 | 47 | 1019.1 |
| 20260901154040 | 93 | 150 | 2.0 | 4.0 | 0.00 | 0.00 | 0.00 | 47 | 1018.9 |
| 20260901153101 | 92 | 194 | 4.0 | 4.0 | 0.00 | 0.00 | 0.00 | 49 | 1019.0 |
| 20260901152041 | 91 | 215 | 5.0 | 6.0 | 0.00 | 0.00 | 0.00 | 49 | 1019.1 |
| 20260901151040 | 91 | 206 | 2.0 | 2.0 | 0.00 | 0.00 | 0.00 | 50 | 1019.1 |
| 20260901150040 | 90 | 164 | 1.0 | 1.0 | 0.00 | 0.00 | 0.00 | 51 | 1019.1 |
| 20260901145041 | 90 | 166 | 2.0 | 2.0 | 0.00 | 0.00 | 0.00 | 52 | 1019.2 |
| 20260901144040 | 89 | 118 | 3.0 | 3.0 | 0.00 | 0.00 | 0.00 | 54 | 1019.3 |
| 20260901143040 | 88 | 187 | 1.0 | 1.0 | 0.00 | 0.00 | 0.00 | 56 | 1019.2 |
| 20260901142040 | 88 | 111 | 3.0 | 3.0 | 0.00 | 0.00 | 0.00 | 57 | 1019.1 |
| 20260901141040 | 88 | 193 | 2.0 | 2.0 | 0.00 | 0.00 | 0.00 | 57 | 1019.3 |
| 20260901140041 | 86 | 159 | 2.0 | 2.0 | 0.00 | 0.00 | 0.00 | 60 | 1019.2 |
| 20260901135041 | 85 | 184 | 1.0 | 1.0 | 0.00 | 0.00 | 0.00 | 62 | 1019.4 |
| 20260901134041 | 84 | 163 | 2.0 | 2.0 | 0.00 | 0.00 | 0.00 | 64 | 1019.2 |
| 20260901133041 | 84 | 197 | 5.0 | 7.0 | 0.00 | 0.00 | 0.00 | 64 | 1019.1 |
| 20260901132040 | 82 | 141 | 3.0 | 3.0 | 0.00 | 0.00 | 0.00 | 67 | 1019.3 |
| 20260901131041 | 81 | 145 | 6.0 | 8.0 | 0.00 | 0.00 | 0.00 | 68 | 1019.0 |
| 20260901130041 | 80 | 161 | 2.0 | 2.0 | 0.00 | 0.00 | 0.00 | 70 | 1018.9 |